Weather History for Salida, CO

Change the Weather History Date:

Thursday, August 14, 2014

  Actual Average (KGUC) Record (KGUC)
Temperature  
Mean Temperature 67 °F -  
Max Temperature 77 °F 74 °F 84 °F (2003)
Min Temperature 57 °F 42 °F 37 °F (2010)
Cooling Degree Days 2    
Growing Degree Days 17 (Base 50)    
Moisture  
Dew Point 51 °F    
Average Humidity 57    
Maximum Humidity 87    
Minimum Humidity 37    
Precipitation  
Precipitation 0.00 in - - ()
Sea Level Pressure  
Sea Level Pressure 30.34 in    
Wind  
Wind Speed 10 mph (SSW)    
Max Wind Speed 28 mph    
Max Gust Speed 45 mph    
Visibility 10 miles    
Events      
Averages and records for this station are not official NWS values.
T = Trace of Precipitation, MM = Missing Value Source: NWS Daily Summary

Daily Weather History Graph

Daily Weather History Graph

Search for Another Location

Airport:

Trip Planner

Search our weather history database for the weather conditions in past years. The results will help you decide how hot, cold, wet, or windy it might be!

Date:

Astronomy

Aug. 14, 2014 Rise Set
Actual Time 6:17 AM MDT 7:59 PM MDT
Civil Twilight 5:49 AM MDT 8:27 PM MDT
Nautical Twilight 5:14 AM MDT 9:01 PM MDT
Astronomical Twilight 4:38 AM MDT 9:38 PM MDT
Moon 10:28 PM MDT (8/14) 10:53 AM MDT (8/14)
Length of Visible Light 14h 38m
Length of Day
13h 41m
Waning Gibbous, 78% of the Moon is Illuminated
Aug 14
Waning Gibbous
Aug 17
Last Quarter
Aug 25
New
Sep 2
First Quarter
Sep 8
Full

Hourly Weather History & Observations

Time (MDT) Temp. Dew Point Humidity Pressure Visibility Wind Dir Wind Speed Gust Speed Precip Events Conditions
12:15 AM 68.7 °F 48.7 °F 49% 30.37 in 10.0 mi South 16.1 mph 28.8 mph N/A   Overcast
12:35 AM 68.4 °F 49.1 °F 50% 30.37 in 10.0 mi South 12.7 mph 20.7 mph N/A   Overcast
12:55 AM 68.0 °F 49.5 °F 51% 30.38 in 10.0 mi South 8.1 mph - N/A   Overcast
1:15 AM 67.3 °F 49.3 °F 52% 30.37 in 10.0 mi South 10.4 mph - N/A   Scattered Clouds
1:35 AM 66.4 °F 49.3 °F 54% 30.36 in 10.0 mi South 10.4 mph 16.1 mph N/A   Clear
1:55 AM 66.2 °F 50.4 °F 57% 30.35 in 10.0 mi SSE 11.5 mph 24.2 mph N/A   Clear
2:15 AM 65.7 °F 51.1 °F 59% 30.35 in 10.0 mi South 11.5 mph 25.3 mph N/A   Clear
2:35 AM 65.3 °F 50.5 °F 59% 30.35 in 10.0 mi South 10.4 mph 19.6 mph N/A   Clear
2:55 AM 65.3 °F 50.0 °F 58% 30.35 in 10.0 mi South 15.0 mph 25.3 mph N/A   Scattered Clouds
3:15 AM 65.7 °F 49.5 °F 56% 30.35 in 10.0 mi South 16.1 mph 21.9 mph N/A   Mostly Cloudy
3:35 AM 65.3 °F 50.2 °F 58% 30.35 in 10.0 mi South 13.8 mph 26.5 mph N/A   Mostly Cloudy
3:55 AM 64.8 °F 50.2 °F 59% 30.36 in 10.0 mi South 6.9 mph - N/A   Mostly Cloudy
4:15 AM 64.6 °F 50.4 °F 60% 30.35 in 10.0 mi Calm Calm - N/A   Overcast
4:35 AM 64.9 °F 49.8 °F 58% 30.35 in 10.0 mi SSW 8.1 mph 18.4 mph N/A   Overcast
4:55 AM 65.3 °F 49.3 °F 56% 30.35 in 10.0 mi South 9.2 mph - N/A   Overcast
5:15 AM 65.7 °F 49.3 °F 55% 30.35 in 10.0 mi South 6.9 mph - N/A   Overcast
5:35 AM 65.1 °F 49.3 °F 56% 30.35 in 10.0 mi North 3.5 mph - N/A   Overcast
5:55 AM 65.3 °F 49.5 °F 57% 30.35 in 10.0 mi South 5.8 mph - N/A   Mostly Cloudy
6:15 AM 64.2 °F 50.0 °F 60% 30.35 in 10.0 mi WNW 5.8 mph - N/A   Mostly Cloudy
6:35 AM 65.3 °F 48.7 °F 55% 30.35 in 10.0 mi SW 3.5 mph - N/A   Scattered Clouds
6:55 AM 64.8 °F 49.3 °F 57% 30.35 in 10.0 mi SSW 3.5 mph - N/A   Mostly Cloudy
7:15 AM 65.3 °F 50.2 °F 58% 30.36 in 10.0 mi South 10.4 mph 16.1 mph N/A   Overcast
7:35 AM 65.3 °F 51.3 °F 60% 30.37 in 10.0 mi SE 4.6 mph - N/A   Mostly Cloudy
7:55 AM 67.3 °F 50.9 °F 56% 30.37 in 10.0 mi SSW 4.6 mph - N/A   Overcast
8:35 AM 65.3 °F 50.9 °F 60% 30.37 in 10.0 mi South 11.5 mph 18.4 mph N/A   Overcast
9:15 AM 67.3 °F 49.5 °F 53% 30.36 in 10.0 mi SSW 10.4 mph - N/A   Scattered Clouds
9:35 AM 68.7 °F 49.3 °F 50% 30.35 in 10.0 mi SW 10.4 mph 17.3 mph N/A   Mostly Cloudy
9:55 AM 70.7 °F 47.8 °F 44% 30.35 in 10.0 mi SW 13.8 mph 20.7 mph N/A   Overcast
10:15 AM 70.7 °F 48.2 °F 45% 30.35 in 10.0 mi South 11.5 mph 18.4 mph N/A   Overcast
10:35 AM 71.4 °F 48.9 °F 45% 30.35 in 10.0 mi SW 10.4 mph - N/A   Overcast
10:55 AM 71.2 °F 49.1 °F 45% 30.34 in 10.0 mi SW 8.1 mph - N/A   Overcast
11:15 AM 71.1 °F 49.5 °F 46% 30.34 in 10.0 mi SSW 9.2 mph - N/A   Overcast
11:35 AM 72.3 °F 47.1 °F 41% 30.33 in 10.0 mi SW 10.4 mph 18.4 mph N/A   Overcast
11:55 AM 72.7 °F 46.8 °F 40% 30.33 in 10.0 mi South 13.8 mph 18.4 mph N/A   Overcast
12:15 PM 72.1 °F 49.3 °F 44% 30.32 in 10.0 mi SSW 9.2 mph 17.3 mph N/A   Overcast
12:35 PM 74.1 °F 48.6 °F 40% 30.31 in 10.0 mi SW 10.4 mph - N/A   Overcast
12:55 PM 76.1 °F 48.0 °F 37% 30.31 in 10.0 mi SSW 12.7 mph 20.7 mph N/A   Mostly Cloudy
1:15 PM 74.1 °F 48.9 °F 41% 30.32 in 10.0 mi SSW 15.0 mph 26.5 mph N/A   Scattered Clouds
1:35 PM 70.7 °F 51.6 °F 51% 30.33 in 10.0 mi SSW 18.4 mph 26.5 mph N/A   Mostly Cloudy
1:55 PM 70.0 °F 51.4 °F 52% 30.33 in 10.0 mi SSW 15.0 mph 20.7 mph N/A   Overcast
2:15 PM 69.3 °F 51.3 °F 53% 30.33 in 10.0 mi SSW 16.1 mph 25.3 mph N/A   Overcast
2:35 PM 68.4 °F 52.0 °F 56% 30.33 in 10.0 mi SW 17.3 mph 27.6 mph N/A   Overcast
2:55 PM 68.7 °F 51.3 °F 54% 30.33 in 10.0 mi SSW 13.8 mph 24.2 mph N/A   Overcast
3:15 PM 69.1 °F 51.3 °F 53% 30.33 in 10.0 mi SSW 12.7 mph 18.4 mph N/A   Overcast
3:35 PM 70.0 °F 51.1 °F 51% 30.32 in 10.0 mi SW 13.8 mph 18.4 mph N/A   Overcast
3:55 PM 71.1 °F 51.4 °F 50% 30.32 in 10.0 mi SW 10.4 mph 16.1 mph N/A   Overcast
4:15 PM 73.8 °F 50.9 °F 45% 30.31 in 10.0 mi SW 6.9 mph - N/A   Overcast
4:35 PM 75.4 °F 50.2 °F 41% 30.30 in 10.0 mi SW 8.1 mph - N/A   Overcast
4:55 PM 74.3 °F 50.0 °F 42% 30.30 in 10.0 mi WSW 5.8 mph - N/A   Overcast
5:15 PM 77.2 °F 48.9 °F 37% 30.30 in 10.0 mi South 5.8 mph - N/A   Overcast
5:35 PM 75.0 °F 50.5 °F 42% 30.30 in 10.0 mi SSW 6.9 mph - N/A   Overcast
5:55 PM 73.2 °F 52.0 °F 47% 30.30 in 10.0 mi NW 27.6 mph 44.9 mph N/A   Overcast
6:15 PM 64.2 °F 56.1 °F 75% 30.31 in 3.0 mi Calm Calm - N/A   Overcast
6:35 PM 64.8 °F 58.8 °F 81% 30.31 in 10.0 mi SW 6.9 mph - N/A   Overcast
6:55 PM 66.2 °F 58.3 °F 76% 30.30 in 10.0 mi SSW 5.8 mph - N/A   Mostly Cloudy
7:15 PM 66.9 °F 58.6 °F 75% 30.30 in 10.0 mi Calm Calm - N/A   Scattered Clouds
7:35 PM 64.6 °F 56.7 °F 75% 30.30 in 10.0 mi Calm Calm - N/A   Clear
7:55 PM 62.4 °F 58.6 °F 87% 30.31 in 10.0 mi Calm Calm - N/A   Clear
8:15 PM 61.5 °F 57.6 °F 87% 30.32 in 10.0 mi Calm Calm - N/A   Clear
8:35 PM 61.2 °F 54.5 °F 79% 30.34 in 10.0 mi West 5.8 mph - N/A   Clear
8:55 PM 61.5 °F 54.9 °F 79% 30.35 in 10.0 mi WNW 5.8 mph - N/A   Mostly Cloudy
9:15 PM 62.1 °F 50.9 °F 67% 30.35 in 10.0 mi West 12.7 mph - N/A   Mostly Cloudy
9:35 PM 62.4 °F 51.3 °F 67% 30.36 in 10.0 mi West 4.6 mph - N/A   Overcast
9:55 PM 61.0 °F 50.4 °F 68% 30.37 in 10.0 mi WNW 4.6 mph - N/A   Overcast
10:15 PM 60.4 °F 52.2 °F 74% 30.37 in 10.0 mi Calm Calm - N/A   Mostly Cloudy
10:35 PM 60.8 °F 51.1 °F 70% 30.37 in 10.0 mi Calm Calm - N/A   Scattered Clouds
10:55 PM 58.1 °F 51.8 °F 80% 30.38 in 10.0 mi SW 5.8 mph - N/A   Clear
11:15 PM 58.1 °F 50.5 °F 76% 30.38 in 10.0 mi WSW 6.9 mph - N/A   Clear
11:35 PM 57.6 °F 50.5 °F 77% 30.38 in 10.0 mi West 6.9 mph - N/A   Clear
11:55 PM 59.0 °F 48.9 °F 69% 30.38 in 10.0 mi West 9.2 mph - N/A   Clear